337P/WISE (2022)

Japanese version
Home page
Updated on April 10, 2022

---------------------------------------------------------------------

* Profile

* Orbital Elements

Epoch 2022 Jan. 21.0 TT = JDT 2459600.5
T 2022 July 1.14238 TT                                  Rudenko
q   1.6541105            (2000.0)            P               Q
n   0.16544720     Peri.  161.02189     -0.03968171     +0.96620063
a   3.2862185      Node   106.06278     -0.94763066     +0.04445613
e   0.4966523      Incl.   15.37095     -0.31689349     -0.25392912
P   5.96
From 228 observations 2010 Apr. 13-2022 Apr. 3, mean residual 0".4.

* Magnitudes Graph

        m1 = 17.3 + 5 log d + 10.0 log r

---------------------------------------------------------------------

The orbital elements are published on M.P.E.C. 2022-G109.
The magnitudes graphs are made with Comet for Windows.

---------------------------------------------------------------------

Copyright(C) Seiichi Yoshida (comet@aerith.net). All rights reserved.